Prudhoe Bay, AK

11:16 PM AKST on February 24, 2017 (GMT -0900)
Deadhorse

Weather History for PASC - February, 2013

Change the Weather History Date:

Monday, February 4, 2013

  Actual Average Record
Temperature  
Mean Temperature -18 °F -  
Max Temperature -14 °F -7 °F 26 °F (1989)
Min Temperature -25 °F -20 °F -48 °F (1990)
Degree Days  
Heating Degree Days 83    
Moisture  
Dew Point -24 °F    
Average Humidity 78    
Maximum Humidity 84    
Minimum Humidity 76    
Precipitation  
Precipitation 0.00 in - - ()
Sea Level Pressure  
Sea Level Pressure 30.14 in    
Wind  
Wind Speed 11 mph (NNE)    
Max Wind Speed 14 mph    
Max Gust Speed -    
Visibility 7 miles    
Events      
Averages and records for this station are not official NWS values.
T = Trace of Precipitation, MM = Missing Value Source: NWS Daily Summary

Daily Weather History Graph

Daily Weather History Graph

Search for Another Location

Airport or City:

Trip Planner

Search our weather history database for the weather conditions in past years. The results will help you decide how hot, cold, wet, or windy it might be!

Date:

Astronomy

Feb. 04, 2013 Rise Set
Actual Time 10:22 AM AKST 3:54 PM AKST
Civil Twilight 9:01 AM AKST 5:15 PM AKST
Nautical Twilight 7:44 AM AKST 6:32 PM AKST
Astronomical Twilight 6:33 AM AKST 7:44 PM AKST
Moon 7:13 AM AKST (2/4) 8:16 AM AKST (2/4)
Length of Visible Light 8h 14m
Length of Day
5h 31m
Waning Crescent, 35% of the Moon is Illuminated
Feb 4
Waning Crescent
Feb 9
New
Feb 17
First Quarter
Feb 25
Full
Mar 4
Last Quarter

Hourly Weather History & Observations

Time (AKST) Temp. Windchill Dew Point Humidity Pressure Visibility Wind Dir Wind Speed Gust Speed Precip Events Conditions
1:53 AM -14.8 °F -36.6 °F -20.2 °F 77% 30.05 in 4.0 mi NE 12.7 mph - N/A   Overcast
2:53 AM -16.6 °F -38.9 °F -20.2 °F 84% 30.05 in 7.0 mi NE 12.7 mph - N/A   Mostly Cloudy
3:53 AM -16.6 °F -39.8 °F -22.0 °F 76% 30.06 in 7.0 mi NE 13.8 mph - N/A   Scattered Clouds
4:53 AM -18.4 °F -41.2 °F -22.0 °F 84% 30.07 in 7.0 mi NE 12.7 mph - N/A   Clear
5:53 AM -18.4 °F -40.2 °F -23.8 °F 76% 30.09 in 7.0 mi NE 11.5 mph - N/A   Clear
6:02 AM - - - N/A% - - North - - N/A   Unknown
6:06 AM - - - N/A% - - North - - N/A   Unknown
6:10 AM - - - N/A% - - North - - N/A   Unknown
6:14 AM - - - N/A% - - North - - N/A   Unknown
6:19 AM - - - N/A% - - North - - N/A   Unknown
6:23 AM - - - N/A% - - North - - N/A   Unknown
6:28 AM - - - N/A% - - North - - N/A   Unknown
6:32 AM - - - N/A% - - North - - N/A   Unknown
6:35 AM - - - N/A% - - North - - N/A   Unknown
6:39 AM - - - N/A% - - North - - N/A   Unknown
6:44 AM - - - N/A% - - North - - N/A   Unknown
6:47 AM - - - N/A% - - North - - N/A   Unknown
6:51 AM - - - N/A% - - North - - N/A   Unknown
6:54 AM - - - N/A% - - North - - N/A   Unknown
6:58 AM - - - N/A% - - North - - N/A   Unknown
7:17 AM -18.4 °F -42.1 °F -23.8 °F 76% 30.10 in 10.0 mi NNE 13.8 mph - N/A   Clear
7:57 AM -18.4 °F -40.2 °F -23.8 °F 76% 30.10 in 10.0 mi NNE 11.5 mph - N/A   Clear
8:56 AM -18.4 °F -42.1 °F -23.8 °F 76% 30.12 in 10.0 mi NNE 13.8 mph - N/A   Partly Cloudy
10:00 AM -20.2 °F -42.4 °F -25.6 °F 76% 30.13 in 10.0 mi NNE 11.5 mph - N/A   Overcast
10:48 AM -20.2 °F -42.4 °F -23.8 °F 83% 30.14 in 10.0 mi NNE 11.5 mph - N/A   Overcast
11:47 AM -20.2 °F -42.4 °F -25.6 °F 76% 30.15 in 10.0 mi NNE 11.5 mph - N/A   Mostly Cloudy
12:53 PM -20.2 °F -41.3 °F -23.8 °F 83% 30.16 in 10.0 mi NNE 10.4 mph - N/A   Mostly Cloudy
1:47 PM -20.2 °F -40.1 °F -23.8 °F 83% 30.17 in 10.0 mi NNE 9.2 mph - N/A   Overcast
2:53 PM -18.4 °F -40.2 °F -23.8 °F 76% 30.17 in 7.0 mi NNE 11.5 mph - N/A   Overcast
3:53 PM - - - N/A% 30.18 in 7.0 mi NNE 8.1 mph - N/A   Overcast
4:53 PM -18.4 °F -36.6 °F -23.8 °F 76% 30.17 in 4.0 mi NNE 8.1 mph - N/A   Haze
5:53 PM -18.4 °F -35.1 °F -23.8 °F 76% 30.18 in 6.0 mi NNE 6.9 mph - N/A   Haze
6:59 PM -18.4 °F -31.4 °F -23.8 °F 76% 30.18 in 6.0 mi NE 4.6 mph - N/A   Haze
7:53 PM -18.4 °F -33.4 °F -23.8 °F 76% 30.18 in 6.0 mi NNE 5.8 mph - N/A   Haze
8:53 PM -18.4 °F -31.4 °F -23.8 °F 76% 30.19 in 7.0 mi NNE 4.6 mph - N/A   Overcast
9:53 PM -18.4 °F -31.4 °F -23.8 °F 76% 30.19 in 3.0 mi North 4.6 mph - N/A   Mostly Cloudy
10:53 PM -22.0 °F -37.7 °F -27.4 °F 76% 30.20 in 5.0 mi NNW 5.8 mph - N/A   Scattered Clouds
11:53 PM -25.6 °F -39.8 °F -31.0 °F 76% 30.21 in 7.0 mi North 4.6 mph - N/A   Partly Cloudy